Weather History for Wrangell, AK

Change the Weather History Date:

Wednesday, May 7, 2014

  Actual Average Record
Temperature  
Mean Temperature 50 °F -  
Max Temperature 62 °F 54 °F 70 °F (1981)
Min Temperature 39 °F 38 °F 32 °F (1962)
Degree Days  
Heating Degree Days 14    
Moisture  
Dew Point 34 °F    
Average Humidity 55    
Maximum Humidity 81    
Minimum Humidity 26    
Precipitation  
Precipitation 0.00 in - - ()
Sea Level Pressure  
Sea Level Pressure 29.88 in    
Wind  
Wind Speed 4 mph (WSW)    
Max Wind Speed 14 mph    
Max Gust Speed -    
Visibility 10 miles    
Events      
Averages and records for this station are not official NWS values.
T = Trace of Precipitation, MM = Missing Value Source: NWS Daily Summary

Daily Weather History Graph

Daily Weather History Graph

Search for Another Location

Airport:

Trip Planner

Search our weather history database for the weather conditions in past years. The results will help you decide how hot, cold, wet, or windy it might be!

Date:

Astronomy

May. 07, 2014 Rise Set
Actual Time 4:49 AM AKDT 8:43 PM AKDT
Civil Twilight 4:02 AM AKDT 9:31 PM AKDT
Nautical Twilight 2:52 AM AKDT 10:42 PM AKDT
Astronomical Twilight 1:18 AM AKDT 12:13 AM AKDT
Moon 12:37 PM AKDT (5/7) 2:13 AM AKDT (5/7)
Length of Visible Light 17h 29m
Length of Day
15h 53m
First Quarter, 57% of the Moon is Illuminated
May 7
First Quarter
May 14
Full
May 21
Last Quarter
May 28
New
Jun 5
First Quarter

Hourly Weather History & Observations

Time (AKDT) Temp. Windchill Dew Point Humidity Pressure Visibility Wind Dir Wind Speed Gust Speed Precip Events Conditions
12:16 AM 48.2 °F - 32.0 °F 54% 30.02 in 10.0 mi Calm Calm - N/A   Clear
12:36 AM 46.4 °F - 33.8 °F 62% 30.02 in 10.0 mi Calm Calm - N/A   Clear
12:56 AM 46.4 °F - 33.8 °F 62% 30.01 in 10.0 mi Calm Calm - N/A   Clear
1:16 AM 46.4 °F - 35.6 °F 66% 30.01 in 10.0 mi Calm Calm - N/A   Clear
1:36 AM 44.6 °F 43.1 °F 33.8 °F 66% 30.00 in 10.0 mi South 3.5 mph - N/A   Clear
1:56 AM 44.6 °F - 33.8 °F 66% 30.00 in 10.0 mi Calm Calm - N/A   Clear
2:16 AM 44.6 °F - 33.8 °F 66% 30.00 in 10.0 mi Calm Calm - N/A   Clear
2:36 AM 44.6 °F 42.2 °F 33.8 °F 66% 29.99 in 10.0 mi SSE 4.6 mph - N/A   Clear
2:56 AM 44.6 °F 41.4 °F 35.6 °F 71% 29.99 in 10.0 mi SE 5.8 mph - N/A   Clear
3:16 AM 44.6 °F 42.2 °F 33.8 °F 66% 29.99 in 10.0 mi SE 4.6 mph - N/A   Clear
3:36 AM 42.8 °F 41.1 °F 33.8 °F 70% 29.98 in 10.0 mi SSE 3.5 mph - N/A   Clear
3:56 AM 42.8 °F 41.1 °F 33.8 °F 70% 29.98 in 10.0 mi WSW 3.5 mph - N/A   Clear
4:16 AM 42.8 °F - 33.8 °F 70% 29.98 in 10.0 mi Calm Calm - N/A   Clear
4:36 AM 41.0 °F - 33.8 °F 76% 29.97 in 10.0 mi Calm Calm - N/A   Clear
4:56 AM 39.2 °F - 32.0 °F 75% 29.96 in 10.0 mi Calm Calm - N/A   Clear
5:16 AM 39.2 °F 37.0 °F 33.8 °F 81% 29.96 in 10.0 mi ESE 3.5 mph - N/A   Scattered Clouds
5:36 AM 39.2 °F 35.9 °F 32.0 °F 75% 29.96 in 10.0 mi SE 4.6 mph - N/A   Scattered Clouds
5:56 AM 41.0 °F 37.1 °F 33.8 °F 76% 29.95 in 10.0 mi SE 5.8 mph - N/A   Scattered Clouds
6:16 AM 41.0 °F 37.1 °F 33.8 °F 76% 29.95 in 10.0 mi SE 5.8 mph - N/A   Scattered Clouds
6:36 AM 42.8 °F 39.3 °F 33.8 °F 70% 29.94 in 10.0 mi ESE 5.8 mph - N/A   Scattered Clouds
6:56 AM 42.8 °F 40.1 °F 35.6 °F 76% 29.94 in 10.0 mi ESE 4.6 mph - N/A   Scattered Clouds
7:16 AM 42.8 °F 39.3 °F 35.6 °F 76% 29.94 in 10.0 mi SE 5.8 mph - N/A   Scattered Clouds
7:36 AM 42.8 °F 39.3 °F 35.6 °F 76% 29.93 in 10.0 mi SE 5.8 mph - N/A   Scattered Clouds
7:56 AM 44.6 °F 43.1 °F 35.6 °F 71% 29.93 in 10.0 mi East 3.5 mph - N/A   Partly Cloudy
8:16 AM 44.6 °F 43.1 °F 37.4 °F 76% 29.93 in 10.0 mi ESE 3.5 mph - N/A   Partly Cloudy
8:36 AM 46.4 °F 45.2 °F 37.4 °F 71% 29.92 in 10.0 mi ENE 3.5 mph - N/A   Partly Cloudy
8:56 AM 46.4 °F 45.2 °F 35.6 °F 66% 29.92 in 10.0 mi NE 3.5 mph - N/A   Partly Cloudy
9:16 AM 46.4 °F 45.2 °F 35.6 °F 66% 29.92 in 10.0 mi North 3.5 mph - N/A   Partly Cloudy
9:36 AM 46.4 °F 45.2 °F 37.4 °F 71% 29.91 in 10.0 mi North 3.5 mph - N/A   Partly Cloudy
9:56 AM 46.4 °F 44.3 °F 37.4 °F 71% 29.90 in 10.0 mi NNW 4.6 mph - N/A   Partly Cloudy
10:16 AM 48.2 °F - 35.6 °F 62% 29.90 in 10.0 mi NNW 6.9 mph - N/A   Partly Cloudy
10:36 AM 48.2 °F - 35.6 °F 62% 29.89 in 10.0 mi NW 5.8 mph - N/A   Partly Cloudy
10:56 AM 48.2 °F - 35.6 °F 62% 29.88 in 10.0 mi NW 6.9 mph - N/A   Partly Cloudy
11:16 AM 50.0 °F - 35.6 °F 58% 29.88 in 10.0 mi NNW 6.9 mph - N/A   Partly Cloudy
11:36 AM 51.8 °F - 35.6 °F 54% 29.87 in 10.0 mi NW 6.9 mph - N/A   Partly Cloudy
11:56 AM 51.8 °F - 35.6 °F 54% 29.87 in 10.0 mi NNW 6.9 mph - N/A   Partly Cloudy
12:16 PM 51.8 °F - 35.6 °F 54% 29.86 in 10.0 mi NNW 8.1 mph - N/A   Partly Cloudy
12:36 PM 51.8 °F - 35.6 °F 54% 29.85 in 10.0 mi NNW 9.2 mph - N/A   Partly Cloudy
12:56 PM 51.8 °F - 37.4 °F 58% 29.85 in 10.0 mi NW 9.2 mph - N/A   Partly Cloudy
1:16 PM 53.6 °F - 37.4 °F 54% 29.85 in 10.0 mi NW 8.1 mph - N/A   Partly Cloudy
1:36 PM 55.4 °F - 37.4 °F 51% 29.84 in 10.0 mi NW 8.1 mph - N/A   Partly Cloudy
1:56 PM 57.2 °F - 37.4 °F 48% 29.83 in 10.0 mi NW 8.1 mph - N/A   Partly Cloudy
2:16 PM 60.8 °F - 35.6 °F 39% 29.83 in 10.0 mi West 6.9 mph - N/A   Partly Cloudy
2:36 PM 60.8 °F - 37.4 °F 42% 29.83 in 10.0 mi West 5.8 mph - N/A   Partly Cloudy
2:56 PM 60.8 °F - 35.6 °F 39% 29.82 in 10.0 mi West 6.9 mph - N/A   Partly Cloudy
3:16 PM 59.0 °F - 35.6 °F 42% 29.81 in 10.0 mi NW 6.9 mph - N/A   Partly Cloudy
3:36 PM 59.0 °F - 35.6 °F 42% 29.81 in 10.0 mi NW 4.6 mph - N/A   Partly Cloudy
3:56 PM 62.6 °F - 30.2 °F 30% 29.81 in 10.0 mi SW 9.2 mph - N/A   Partly Cloudy
4:16 PM 62.6 °F - 30.2 °F 30% 29.80 in 10.0 mi South 8.1 mph - N/A   Scattered Clouds
4:36 PM 62.6 °F - 30.2 °F 30% 29.80 in 10.0 mi WSW 9.2 mph - N/A   Scattered Clouds
4:56 PM 62.6 °F - 28.4 °F 27% 29.80 in 10.0 mi WSW 5.8 mph - N/A   Scattered Clouds
5:16 PM 62.6 °F - 26.6 °F 26% 29.80 in 10.0 mi ESE 4.6 mph - N/A   Partly Cloudy
5:36 PM 60.8 °F - 26.6 °F 27% 29.80 in 10.0 mi SSW 9.2 mph - N/A   Partly Cloudy
5:56 PM 60.8 °F - 28.4 °F 29% 29.79 in 10.0 mi SSW 13.8 mph - N/A   Mostly Cloudy
6:16 PM 60.8 °F - 28.4 °F 29% 29.79 in 10.0 mi South 8.1 mph - N/A   Mostly Cloudy
6:36 PM 60.8 °F - 30.2 °F 31% 29.79 in 10.0 mi South 5.8 mph - N/A   Mostly Cloudy
6:56 PM 60.8 °F - 32.0 °F 34% 29.79 in 10.0 mi SE 6.9 mph - N/A   Mostly Cloudy
7:16 PM 60.8 °F - 32.0 °F 34% 29.79 in 10.0 mi SSE 5.8 mph - N/A   Mostly Cloudy
7:36 PM 59.0 °F - 30.2 °F 34% 29.79 in 10.0 mi SSW 8.1 mph - N/A   Mostly Cloudy
7:56 PM 57.2 °F - 32.0 °F 38% 29.80 in 10.0 mi SSW 8.1 mph - N/A   Mostly Cloudy
8:16 PM 55.4 °F - 33.8 °F 44% 29.80 in 10.0 mi WNW 8.1 mph - N/A   Mostly Cloudy
8:36 PM 53.6 °F - 33.8 °F 47% 29.80 in 10.0 mi WNW 5.8 mph - N/A   Mostly Cloudy
8:56 PM 51.8 °F - 32.0 °F 47% 29.80 in 10.0 mi SW 6.9 mph - N/A   Mostly Cloudy
9:16 PM 51.8 °F - 32.0 °F 47% 29.80 in 10.0 mi Calm Calm - N/A   Mostly Cloudy
9:36 PM 51.8 °F - 32.0 °F 47% 29.80 in 10.0 mi SW 3.5 mph - N/A   Mostly Cloudy
9:56 PM 51.8 °F - 30.2 °F 44% 29.80 in 10.0 mi WNW 3.5 mph - N/A   Mostly Cloudy
10:16 PM 51.8 °F - 33.8 °F 50% 29.80 in 10.0 mi WNW 4.6 mph - N/A   Mostly Cloudy
10:36 PM 48.2 °F - 33.8 °F 58% 29.80 in 10.0 mi WSW 5.8 mph - N/A   Mostly Cloudy
10:56 PM 50.0 °F - 32.0 °F 50% 29.80 in 10.0 mi Calm Calm - N/A   Mostly Cloudy
11:16 PM 50.0 °F - 32.0 °F 50% 29.80 in 10.0 mi Calm Calm - N/A   Overcast
11:36 PM 50.0 °F - 32.0 °F 50% 29.79 in 10.0 mi Calm Calm - N/A   Overcast
11:56 PM 48.2 °F - 33.8 °F 58% 29.79 in 10.0 mi Calm Calm - N/A   Overcast